KF5PJP Weather Reports


Display with metric or nautical units.
time (UTC)temp
F
wind
direction
speed
MPH
gust
MPH
rain 1hr
in
rain 24hr
in
rain mn
in
humidity
%
barometer
mb
20260903042454 76 272 1.0 3.0 0.04 0.56 0.56 95 1013.6
20260903042016 76 273 0.0 3.0 0.06 0.56 0.56 95 1013.6
20260903041544 76 281 1.0 4.0 0.08 0.56 0.56 95 1013.4
20260903040934 76 281 2.0 5.0 0.10 0.55 0.55 95 1013.4
20260903040506 76 299 0.0 4.0 0.12 0.55 0.55 95 1013.5
20260903035450 76 288 2.0 7.0 0.17 0.54 0.54 95 1013.2
20260903034959 76 275 1.0 6.0 0.19 0.54 0.54 95 1013.1
20260903033955 76 273 1.0 4.0 0.23 0.53 0.53 95 1013.1
20260903032948 76 299 2.0 4.0 0.29 0.53 0.53 95 1013.0
20260903032523 76 270 2.0 7.0 0.30 0.52 0.52 95 1012.9
20260903031943 76 281 2.0 5.0 0.31 0.50 0.50 95 1013.1
20260903031522 76 294 2.0 5.0 0.30 0.48 0.48 95 1013.2
20260903030936 76 260 3.0 4.0 0.30 0.45 0.45 95 1013.1
20260903030510 76 283 1.0 4.0 0.29 0.43 0.43 95 1013.2
20260903025452 76 282 3.0 5.0 0.27 0.37 0.37 94 1013.1
20260903024435 76 258 2.0 5.0 0.26 0.32 0.32 94 1013.1
20260903024001 76 295 2.0 4.0 0.23 0.29 0.29 94 1013.1
20260903023430 76 284 2.0 9.0 0.21 0.26 0.26 94 1012.9
20260903023003 76 271 2.0 9.0 0.20 0.24 0.24 94 1012.9
20260903022009 76 281 2.0 6.0 0.16 0.19 0.19 93 1012.8
20260903020952 76 266 2.0 3.0 0.15 0.15 0.15 93 1012.7
20260903015947 76 290 1.0 4.0 0.12 0.12 0.12 92 1012.5
20260903014936 76 286 2.0 4.0 0.06 0.06 0.06 92 1012.4
20260903014510 76 273 2.0 4.0 0.06 0.06 0.06 91 1012.4
20260903014024 76 291 2.0 4.0 0.06 0.06 0.06 91 1012.2
20260903013438 77 278 2.0 4.0 0.05 0.05 0.05 90 1012.3
20260903012438 78 298 1.0 6.0 0.04 0.04 0.04 88 1012.2
20260903012012 79 263 2.0 7.0 0.02 0.02 0.02 85 1012.3
20260903010955 79 275 3.0 6.0 0.00 0.00 0.00 82 1012.1
20260903005943 80 249 3.0 5.0 0.00 0.00 0.00 80 1012.0
20260903005450 80 277 2.0 5.0 0.00 0.00 0.00 79 1011.9
20260903004439 80 297 3.0 7.0 0.00 0.00 0.00 78 1011.9
20260903003432 81 287 3.0 5.0 0.00 0.00 0.00 76 1012.0
20260903002958 81 263 2.0 6.0 0.00 0.00 0.00 76 1012.0
20260903001945 82 290 3.0 8.0 0.00 0.00 0.00 75 1012.0
20260903000950 82 283 3.0 6.0 0.00 0.00 0.00 74 1012.1
20260903000520 82 268 2.0 6.0 0.00 0.00 0.00 74 1012.1
20260902235944 82 309 4.0 6.0 0.00 0.00 0.00 73 1012.1
20260902234942 82 262 3.0 5.0 0.00 0.00 0.00 73 1012.2
20260902234514 83 278 1.0 7.0 0.00 0.00 0.00 73 1012.2
20260902233953 83 286 2.0 8.0 0.00 0.00 0.00 72 1012.3
20260902233504 83 280 3.0 7.0 0.00 0.00 0.00 71 1012.2
20260902232501 83 281 3.0 10.0 0.00 0.00 0.00 71 1012.1
20260902231501 84 261 2.0 7.0 0.00 0.00 0.00 71 1012.0
20260902230501 84 284 3.0 9.0 0.00 0.00 0.00 70 1012.0
20260902225509 85 281 5.0 14.0 0.00 0.00 0.00 69 1011.8
20260902224933 85 267 5.0 10.0 0.00 0.00 0.00 68 1011.8
20260902224517 85 257 5.0 10.0 0.00 0.00 0.00 67 1011.8
20260902223938 86 284 2.0 7.0 0.00 0.00 0.00 67 1011.7
20260902222952 87 286 3.0 8.0 0.00 0.00 0.00 63 1011.6
20260902221955 88 279 4.0 6.0 0.00 0.00 0.00 62 1011.7
20260902220954 87 295 3.0 7.0 0.00 0.00 0.00 63 1011.8
20260902215958 88 277 3.0 8.0 0.00 0.00 0.00 62 1011.8
20260902215431 88 286 4.0 7.0 0.00 0.00 0.00 62 1011.8
20260902215007 88 283 2.0 7.0 0.00 0.00 0.00 63 1011.8
20260902213945 89 296 3.0 6.0 0.00 0.00 0.00 63 1011.8
20260902213523 88 244 3.0 5.0 0.00 0.00 0.00 64 1011.8
20260902212936 89 257 3.0 6.0 0.00 0.00 0.00 63 1011.8
20260902211950 90 284 2.0 10.0 0.00 0.00 0.00 61 1011.8
20260902210945 90 271 2.0 7.0 0.00 0.00 0.00 61 1011.9
20260902205943 90 295 2.0 9.0 0.00 0.00 0.00 61 1011.9
20260902205504 90 292 4.0 9.0 0.00 0.00 0.00 60 1011.9
20260902204927 89 275 3.0 6.0 0.00 0.00 0.00 61 1012.0
20260902204452 90 274 3.0 6.0 0.00 0.00 0.00 61 1012.1
20260902203443 90 320 3.0 7.0 0.00 0.00 0.00 61 1012.1
20260902203018 89 263 2.0 7.0 0.00 0.00 0.00 62 1012.3
20260902202433 89 285 4.0 7.0 0.00 0.00 0.00 63 1012.3
20260902201955 88 262 3.0 8.0 0.00 0.00 0.00 64 1012.3
20260902200947 88 265 5.0 7.0 0.00 0.00 0.00 63 1012.4
20260902200522 89 263 2.0 8.0 0.00 0.00 0.00 63 1012.3
20260902195942 88 248 4.0 9.0 0.00 0.00 0.00 64 1012.3
20260902194949 88 273 5.0 10.0 0.00 0.00 0.00 62 1012.6
20260902193957 90 238 3.0 7.0 0.00 0.00 0.00 61 1012.5
20260902192949 90 248 4.0 8.0 0.00 0.00 0.00 60 1012.5
20260902192534 91 267 3.0 8.0 0.00 0.00 0.00 61 1012.5
20260902192026 90 282 2.0 8.0 0.00 0.00 0.00 61 1012.5
20260902191439 89 288 4.0 8.0 0.00 0.00 0.00 61 1012.6
20260902191014 89 249 4.0 8.0 0.00 0.00 0.00 62 1012.6
20260902190001 89 291 3.0 6.0 0.00 0.00 0.00 63 1012.8
20260902184951 89 296 3.0 7.0 0.00 0.00 0.00 63 1012.9
20260902184511 88 271 3.0 6.0 0.00 0.00 0.00 64 1013.0
20260902183945 89 292 3.0 7.0 0.00 0.00 0.00 64 1013.1
20260902183519 88 278 4.0 7.0 0.00 0.00 0.00 64 1013.1
20260902182929 88 297 3.0 7.0 0.00 0.00 0.00 64 1013.3
20260902182506 88 299 3.0 7.0 0.00 0.00 0.00 64 1013.3
20260902182014 88 280 3.0 7.0 0.00 0.00 0.00 65 1013.4
20260902181426 88 254 3.0 7.0 0.00 0.00 0.00 66 1013.6
20260902181004 88 289 3.0 7.0 0.00 0.00 0.00 66 1013.6
20260902175946 88 285 3.0 7.0 0.00 0.00 0.00 64 1013.9
20260902174928 88 284 3.0 7.0 0.00 0.00 0.00 62 1013.8
20260902174455 88 266 4.0 8.0 0.00 0.00 0.00 62 1013.9
20260902173501 89 273 4.0 6.0 0.00 0.00 0.00 62 1013.8
20260902172942 89 297 2.0 7.0 0.00 0.00 0.00 63 1013.7
20260902172508 88 309 4.0 8.0 0.00 0.00 0.00 64 1013.8
20260902172017 88 240 4.0 8.0 0.00 0.00 0.00 62 1013.9
20260902170952 88 257 5.0 9.0 0.00 0.00 0.00 63 1014.1
20260902165946 88 267 4.0 7.0 0.00 0.00 0.00 64 1014.4
20260902165523 87 281 4.0 7.0 0.00 0.00 0.00 64 1014.5
20260902164932 87 230 4.0 8.0 0.00 0.00 0.00 65 1014.8
20260902163942 87 263 5.0 9.0 0.00 0.00 0.00 68 1014.9
20260902162944 85 270 4.0 8.0 0.00 0.00 0.00 73 1015.0
20260902161949 85 252 3.0 6.0 0.00 0.00 0.00 72 1015.2
20260902160931 85 246 2.0 5.0 0.00 0.00 0.00 73 1015.1
20260902160514 85 275 2.0 6.0 0.00 0.00 0.00 75 1015.0
20260902155927 85 291 3.0 6.0 0.00 0.00 0.00 75 1015.0
20260902155453 84 274 2.0 5.0 0.00 0.00 0.00 75 1015.0
20260902155020 84 270 2.0 4.0 0.00 0.00 0.00 76 1015.0
20260902154526 84 252 2.0 5.0 0.00 0.00 0.00 76 1015.0
20260902153953 84 272 3.0 6.0 0.00 0.00 0.00 75 1014.9
20260902152953 85 282 3.0 6.0 0.00 0.00 0.00 75 1014.9
20260902151947 84 248 3.0 6.0 0.00 0.00 0.00 76 1015.0
20260902150955 84 277 2.0 5.0 0.00 0.00 0.00 76 1014.8
20260902150004 84 248 2.0 6.0 0.00 0.00 0.00 76 1014.9
20260902145443 84 290 3.0 6.0 0.00 0.00 0.00 75 1015.0
20260902144454 84 262 2.0 5.0 0.00 0.00 0.00 76 1015.0
20260902143455 83 263 2.0 4.0 0.00 0.00 0.00 78 1014.9
20260902142458 83 271 2.0 5.0 0.00 0.00 0.00 80 1015.0
20260902141442 82 286 2.0 4.0 0.00 0.00 0.00 82 1015.0
20260902141020 81 291 2.0 4.0 0.00 0.00 0.00 82 1015.0
20260902140429 81 259 2.0 3.0 0.00 0.00 0.00 83 1015.0
20260902140014 81 274 2.0 4.0 0.00 0.00 0.00 83 1015.0
20260902135003 80 229 2.0 4.0 0.00 0.00 0.00 84 1014.9
20260902134001 80 292 2.0 4.0 0.00 0.00 0.00 85 1014.9
20260902133005 79 244 2.0 3.0 0.00 0.00 0.00 86 1014.8
20260902132523 79 249 1.0 2.0 0.00 0.00 0.00 87 1014.7
20260902131928 78 248 1.0 3.0 0.00 0.00 0.00 87 1014.8
20260902131504 78 265 1.0 3.0 0.00 0.00 0.00 87 1014.7
20260902130439 78 268 2.0 3.0 0.00 0.00 0.00 88 1014.6
20260902130022 77 266 2.0 3.0 0.00 0.00 0.00 88 1014.7
20260902125011 77 239 1.0 3.0 0.00 0.00 0.00 89 1014.8
20260902124430 77 252 1.0 3.0 0.00 0.00 0.00 89 1014.8
20260902124006 77 228 2.0 3.0 0.00 0.00 0.00 89 1014.8
20260902123546 77 254 1.0 2.0 0.00 0.00 0.00 89 1014.8
20260902122933 76 248 1.0 3.0 0.00 0.00 0.00 89 1014.6
20260902122505 76 272 1.0 3.0 0.00 0.00 0.00 89 1014.6
20260902122023 76 237 1.0 3.0 0.00 0.00 0.00 89 1014.6
20260902121437 76 242 1.0 4.0 0.00 0.00 0.00 89 1014.7
20260902121006 76 254 1.0 3.0 0.00 0.00 0.00 89 1014.7
20260902120431 76 250 1.0 2.0 0.00 0.00 0.00 89 1014.6
20260902115951 76 268 1.0 2.0 0.00 0.00 0.00 89 1014.6
20260902114950 76 281 1.0 3.0 0.00 0.00 0.00 88 1014.7
20260902114519 76 254 1.0 3.0 0.00 0.00 0.00 88 1014.6
20260902114023 76 238 1.0 2.0 0.00 0.00 0.00 88 1014.7
20260902113425 76 273 1.0 2.0 0.00 0.00 0.00 87 1014.6
20260902113010 76 284 1.0 2.0 0.00 0.00 0.00 87 1014.6
20260902111953 76 265 1.0 1.0 0.00 0.00 0.00 87 1014.5
20260902110946 76 287 0.0 2.0 0.00 0.00 0.00 86 1014.5
20260902105950 77 248 0.0 1.0 0.00 0.00 0.00 86 1014.4
20260902104935 77 249 1.0 2.0 0.00 0.00 0.00 85 1014.3
20260902104505 77 269 0.0 1.0 0.00 0.00 0.00 85 1014.3
20260902104026 77 245 0.0 0.0 0.00 0.00 0.00 85 1014.3
20260902102941 77 255 0.0 0.0 0.00 0.00 0.00 85 1014.4
20260902102510 77 262 0.0 0.0 0.00 0.00 0.00 84 1014.6
20260902101927 77 262 0.0 1.0 0.00 0.00 0.00 84 1014.6
20260902101458 77 263 0.0 1.0 0.00 0.00 0.00 84 1014.6
20260902101025 77 277 0.0 2.0 0.00 0.00 0.00 84 1014.6
20260902095945 78 277 0.0 2.0 0.00 0.00 0.00 83 1014.4
20260902095517 78 280 0.0 2.0 0.00 0.00 0.00 83 1014.4
20260902094952 78 285 0.0 2.0 0.00 0.00 0.00 83 1014.3
20260902094451 78 285 0.0 2.0 0.00 0.00 0.00 83 1014.3
20260902093438 78 253 1.0 3.0 0.00 0.00 0.00 82 1014.2
20260902092435 78 265 0.0 1.0 0.00 0.00 0.00 82 1014.3
20260902091444 78 268 0.0 1.0 0.00 0.00 0.00 81 1014.4
20260902090427 78 260 1.0 2.0 0.00 0.00 0.00 81 1014.4
20260902090010 79 277 1.0 2.0 0.00 0.00 0.00 81 1014.3
20260902084931 79 253 0.0 1.0 0.00 0.00 0.00 80 1014.3
20260902084457 79 253 0.0 2.0 0.00 0.00 0.00 79 1014.3
20260902083506 79 271 0.0 1.0 0.00 0.00 0.00 79 1014.3
20260902082452 79 274 0.0 1.0 0.00 0.00 0.00 78 1014.3
20260902081504 79 274 0.0 2.0 0.00 0.00 0.00 78 1014.3
20260902080458 79 264 0.0 0.0 0.00 0.00 0.00 77 1014.4
20260902075446 80 264 0.0 0.0 0.00 0.00 0.00 77 1014.5
20260902074446 80 273 0.0 0.0 0.00 0.00 0.00 76 1014.6
20260902073442 80 273 0.0 0.0 0.00 0.00 0.00 75 1014.7
20260902073024 80 273 0.0 0.0 0.00 0.00 0.00 75 1014.7
20260902072448 80 273 0.0 0.0 0.00 0.00 0.00 75 1014.7
20260902072014 80 273 0.0 0.0 0.00 0.00 0.00 75 1014.7
20260902071432 80 273 0.0 0.0 0.00 0.00 0.00 74 1014.7
20260902071002 80 273 0.0 0.0 0.00 0.00 0.00 74 1014.7
20260902065952 81 273 0.0 0.0 0.00 0.00 0.00 73 1014.6
20260902065433 81 273 0.0 0.0 0.00 0.00 0.00 73 1014.6
20260902064935 81 273 0.0 0.0 0.00 0.00 0.00 73 1014.6
20260902064501 81 273 0.0 0.0 0.00 0.00 0.00 73 1014.7
20260902063941 81 272 0.0 0.0 0.00 0.00 0.00 72 1014.7
20260902063428 81 282 0.0 0.0 0.00 0.00 0.00 72 1014.7
20260902062933 81 282 0.0 0.0 0.00 0.00 0.00 72 1014.6
20260902062431 81 288 0.0 0.0 0.00 0.00 0.00 71 1014.7
20260902061933 82 281 0.0 0.0 0.00 0.00 0.00 71 1014.7
20260902061451 82 277 0.0 0.0 0.00 0.00 0.00 71 1014.7
20260902060951 82 282 0.0 1.0 0.00 0.00 0.00 71 1014.7
20260902060434 82 290 0.0 1.0 0.00 0.00 0.00 70 1014.7
20260902055934 82 273 1.0 1.0 0.00 0.00 0.00 70 1014.6
20260902055431 82 279 0.0 1.0 0.00 0.00 0.00 70 1014.6
20260902054935 82 279 0.0 1.0 0.00 0.00 0.00 70 1014.7
20260902054452 82 279 0.0 1.0 0.00 0.00 0.00 70 1014.6
20260902053952 82 273 0.0 1.0 0.00 0.00 0.00 69 1014.7
20260902053449 83 275 0.0 1.0 0.00 0.00 0.00 69 1014.7
20260902052928 83 275 0.0 2.0 0.00 0.00 0.00 69 1014.7
20260902052433 83 235 1.0 2.0 0.00 0.00 0.00 68 1014.7
20260902051949 83 278 0.0 2.0 0.00 0.00 0.00 68 1014.7
20260902051455 83 273 1.0 2.0 0.00 0.00 0.00 68 1014.7
20260902050926 83 286 1.0 2.0 0.00 0.00 0.00 67 1014.7
20260902050433 84 273 1.0 2.0 0.00 0.00 0.00 67 1014.7
20260902045950 84 279 0.0 2.0 0.00 0.00 0.00 67 1014.7
20260902045515 84 279 0.0 3.0 0.00 0.00 0.00 67 1014.7
20260902044944 84 286 1.0 3.0 0.00 0.00 0.00 66 1014.6
20260902044524 84 276 0.0 1.0 0.00 0.00 0.00 66 1014.6
20260902043946 84 276 0.0 2.0 0.00 0.00 0.00 66 1014.6
20260902042939 84 269 1.0 3.0 0.00 0.00 0.00 65 1014.6